Tracking 25193 objects as of 17-Jan-2022
HD Live streaming from Space Station
objects crossing your sky now

ATLAS CENTAUR 2 DEB

Track ATLAS CENTAUR 2 DEB now!
10-day predictions


NORAD ID: 3741
Int'l Code: 1963-047L
Perigee: 601.0 km
Apogee: 1,070.9 km
Inclination: 29.9 °
Period: 101.5 minutes
Semi major axis: 7206 km
RCS: 0.0775 m2 (small)
Launch date: November 27, 1963
Source: United States (US)
Launch site: AIR FORCE EASTERN TEST RANGE (AFETR)

Note: This is SATELLITE DEBRIS
aabbcc
Your satellite tracking list
Your tracking list is empty




NASA's NSSDC Master Catalog

Two Line Element Set (TLE):
1 03741U 63047L   22016.88533331  .00001894  00000-0  49959-3 0  9991
2 03741  29.8899 309.8203 0325974 309.6086  47.6152 14.18984108681722
Source of the keplerian elements: AFSPC